Regional Weather Roundup
Issued by NWS

Home | Current Version | Previous Version | Graphics & Text | Print | Product List | Glossary Off
Versions: 1 2 3 4 5 6 7 8 9 10 11 12 13 14 15 16 17 18 19 20 21 22 23 24 25 26 27 28 29 30 31 32 33 34 35 36 37 38 39 40 41 42 43 44 45 46 47 48 49 50

000
ASUS43 KMKX 191120
RWRWI

WISCONSIN REGIONAL WEATHER ROUNDUP
NATIONAL WEATHER SERVICE MILWAUKEE/SULLIVAN WI
500 AM CST MON FEB 19 2018

NOTE: "FAIR" INDICATES FEW OR NO CLOUDS BELOW 12,000 FEET WITH NO
SIGNIFICANT WEATHER AND/OR OBSTRUCTIONS TO VISIBILITY.

WIZ001-002-006>008-014>016-023>028-191200-
NORTHWEST WISCONSIN

CITY           SKY/WX    TMP DP  RH WIND       PRES   REMARKS
SUPERIOR ARPT  CLOUDY    17  10  75 N12G17    29.98F WCI   4
ASHLAND        LGT SNOW  19  17  92 N16       29.97S VSB 1   WCI   4
HAYWARD        LGT SNOW  20  16  84 NE12      29.91R FOG     WCI   8
SIREN          LGT SNOW  20  17  85 NE13      29.90S WCI   8
CUMBERLAND     CLOUDY    21  18  86 N18G24    29.84S WCI   6
RICE LAKE      CLOUDY    24  21  88 N16G24    29.86R WCI  11
CHETEK         CLOUDY    28  23  83 N9        29.83R WCI  19
LADYSMITH      CLOUDY    27  22  82 N16       29.84R WCI  15
EAU CLAIRE     CLOUDY    29  25  85 NE10      29.78S WCI  20
MENOMONIE      FAIR      28  23  83 N9        29.79S WCI  19
NEW RICHMOND   CLOUDY    25  20  82 N17       29.83S WCI  11
OSCEOLA        CLOUDY    24  20  83 N12G23    29.88S WCI  13
$$

WIZ003>005-009-010-017-018-191200-
NORTH CENTRAL WISCONSIN

CITY           SKY/WX    TMP DP  RH WIND       PRES   REMARKS
MANITOWISH WTR CLOUDY    17  17 100 N7        29.86R WCI   8
ARBOR VITAE    CLOUDY    23  20  89 N9        29.83R WCI  13
WOODRUFF       CLOUDY    23  20  89 N9        29.83R WCI  13
RHINELANDER    CLOUDY    29  26  89 NE3       29.80R
EAGLE RIVER    CLOUDY    24  22  93 N12       29.83R WCI  12
LAND O LAKES   FOG       21  20  96 N9        29.86R VSB 1   WCI  11
PHILLIPS       CLOUDY    25  23  93 N13       29.82S WCI  13
TOMAHAWK       CLOUDY    26  24  91 NE3       29.81R
MEDFORD        FAIR      23  22  96 N8        29.79R WCI  14
MERRILL        FAIR      22  22  99 CALM      29.80R FOG
$$

WIZ029-030-035-036-043>047-191200-
CENTRAL WISCONSIN

CITY           SKY/WX    TMP DP  RH WIND       PRES   REMARKS
WAUSAU         FAIR      23  22  96 CALM      29.79R FOG
MOSINEE        FAIR      27  27 100 E6        29.80R FOG     WCI  20
MARSHFIELD     FAIR      25  24  96 NE5       29.77R FOG     WCI  19
STEVENS POINT  FAIR      20  20 100 CALM      29.81R
WAUPACA        FAIR      28  26  91 N3        29.81R FOG
WAUTOMA        CLOUDY    25  23  92 CALM      29.79R
WISC RAPIDS    MOCLDY    24  21  88 E3        29.80R
CAMP DOUGLAS   CLOUDY    35  30  81 NE3       29.76R
$$

WIZ011>013-019>022-031-037>040-048>050-191200-
NORTHEAST WISCONSIN

CITY           SKY/WX    TMP DP  RH WIND       PRES   REMARKS
ANTIGO         FAIR      15  14  95 NE6       29.79R FOG     WCI   7
SHAWANO        FAIR      26  24  92 CALM      29.83R
OCONTO         CLOUDY    28  27  93 CALM      29.83R
STURGEON BAY   CLOUDY    35  32  88 MISG      29.83
GREEN BAY      CLOUDY    34  28  79 CALM      29.82R
MANITOWOC      CLOUDY    34  32  92 S6        29.83R WCI  29
APPLETON       CLOUDY    32  27  80 CALM      29.78R
CLINTONVILLE   FAIR      24  22  91 CALM      29.82R FOG
OSHKOSH        CLOUDY    37  31  78 S6        29.80R WCI  32
$$

WIZ032>034-041-042-053>061-191200-
SOUTHWEST WISCONSIN

CITY           SKY/WX    TMP DP  RH WIND       PRES   REMARKS
LA CROSSE      FAIR      33  29  85 CALM      29.74F
SPARTA         FAIR      29  27  92 CALM      29.76S
VIROQUA        CLOUDY    35  32  88 SE6       29.73S WCI  30
BOSCOBEL       CLOUDY    36  30  79 CALM      29.77R
PRAIRIE DU CHI FAIR      38  29  71 E7        29.74S WCI  33
PLATTEVILLE    FAIR      36  33  90 SE7       29.78R WCI  30
$$

WIZ056-057-062-063-064-067-068-191200-
SOUTH CENTRAL WISCONSIN

CITY           SKY/WX    TMP DP  RH WIND       PRES   REMARKS
REEDSBURG      CLOUDY    37  31  79 S3        29.77S
BARABOO/DELLS  CLOUDY    37  31  78 S7        29.77R WCI  31
LONE ROCK      NOT AVBL
MINERAL POINT  FAIR      36  34  93 SE7       29.76S WCI  30
MADISON        CLOUDY    36  32  85 S6        29.81S WCI  31
MIDDLETON      CLOUDY    38  33  82 S5        29.80S WCI  34
WATERTOWN      CLOUDY    36  33  91 S5        29.81S WCI  32
MONROE         FAIR      36  34  93 S8        29.78F WCI  29
JANESVILLE     FAIR      37  36  93 S5        29.81F WCI  34
$$

WIZ051-052-058>065-066-070>072-191200-
SOUTHEAST WISCONSIN

CITY           SKY/WX    TMP DP  RH WIND       PRES   REMARKS
MILWAUKEE      CLOUDY    40  34  79 SW8       29.82S WCI  34
WAUKESHA       CLOUDY    36  32  87 SW6       29.83S WCI  31
MILWAUKEE/TIMM CLOUDY    37  32  81 SW6       29.83S WCI  33
RACINE         CLOUDY    39  34  82 SW7       29.85S WCI  34
BURLINGTON     CLOUDY    37  33  85 S6        29.83S WCI  32
KENOSHA        CLOUDY    40  34  79 SW7       29.84R
FOND DU LAC    CLOUDY    38  30  73 S12       29.80R WCI  30
SHEBOYGAN      CLOUDY    34  32  92 S5        29.82R WCI  30
WEST BEND      CLOUDY    37  34  87 SW7       29.82R WCI  32
JUNEAU         CLOUDY    35  32  88 SE7       29.82S WCI  29
$$

LSZ147-162-191200-
LAKE SUPERIOR

STATION/POSITION TIME  TEMP    WIND        PRES    WAVE
                       AIR SEA DIR/SP/G            HT/PER
                 (UTC) (F)     (DEG/KT/KT) (MB)    (FT/S)
DEVILS ISLAND    1100   20      30/ 18/ 21 1017.5R
SAXON HARBOR     1041   21      60/ 12/ 19 1014.6S
$$

LMZ867-665-643>646-191200-
LAKE MICHIGAN

STATION/POSITION TIME  TEMP    WIND        PRES    WAVE
                       AIR SEA DIR/SP/G            HT/PER
                 (UTC) (F)     (DEG/KT/KT) (MB)    (FT/S)
NORTHPORT PIER   1040   35                 1010.5S
KEWAUNEE LAKESHO 1054   34     180/  7/  9 1009.4R
SHEBOYGAN LAKESH 1100   35     180/ 11/ 11 1010.5R
PORT WASHINGTON  1030   34     200/  3/  6 1011.2R
MILWAUKEE LAKESH 1100   39     220/  8/ 10   N/A
KENOSHA   LAKESH 1100   41     210/  4/  7 1010.8
$$

TC  - TEMPERATURE IN CELSIUS
VSB - VISIBILITY IN STATUTE MILES
WCI - WIND CHILL INDEX
HX  - HEAT INDEX




USA.gov is the U.S. government's official web portal to all federal, state and local government web resources and services.